Location: Passau
(48.5830°N, 13.4830°E)
Time: 19:36:56
(UTC+02:00)

Vanguard 1 Rocket - All Passes

Search period start: 28 July 2021 00:00
Search period end: 07 August 2021 00:00
Orbit: 650 x 4226 km, 34.3° (Epoch: 27 July)

Date Brightness Start Highest point End Pass type
(mag) Time Alt. Az. Time Alt. Az. Time Alt. Az.
28 Jul - 09:00:33 10° SSE 09:04:59 11° SE 09:08:57 10° SE daylight
28 Jul - 11:19:11 10° SSW 11:32:04 26° SSE 11:40:11 10° ESE daylight
28 Jul - 13:47:14 10° WSW 13:58:01 32° S 14:04:22 10° ESE daylight
28 Jul - 16:16:39 10° WSW 16:22:18 20° SSW 16:26:21 10° SSE daylight
29 Jul - 10:06:59 10° SSW 10:19:52 22° SSE 10:28:40 10° ESE daylight
29 Jul - 12:33:27 10° SW 12:46:33 33° S 12:54:09 10° ESE daylight
29 Jul - 15:03:00 10° WSW 15:11:41 28° SSW 15:17:04 10° SE daylight
30 Jul - 08:56:29 10° S 09:07:23 17° SSE 09:15:45 10° ESE daylight
30 Jul - 11:19:48 10° SW 11:34:39 31° SSE 11:43:32 10° ESE daylight
30 Jul - 13:49:04 10° WSW 14:00:39 34° S 14:07:18 10° SE daylight
30 Jul - 16:19:20 10° WSW 16:24:45 18° SSW 16:28:43 10° S daylight
31 Jul - 07:51:09 10° SSE 07:54:46 11° SE 07:58:08 10° SE daylight
31 Jul - 10:06:46 10° SSW 10:22:20 27° SSE 10:32:21 10° ESE daylight
31 Jul - 12:34:53 10° WSW 12:49:10 37° S 12:57:11 10° ESE daylight
31 Jul - 15:05:16 10° WSW 15:14:12 28° SSW 15:19:46 10° SE daylight
01 Aug - 08:54:58 10° S 09:09:42 22° SSE 09:20:14 10° ESE daylight
01 Aug - 11:20:44 10° SW 11:37:11 36° S 11:46:41 10° ESE daylight
01 Aug - 13:51:00 10° WSW 14:03:13 36° SSW 14:10:09 10° SE daylight
01 Aug - 16:22:12 10° WSW 16:27:06 16° SW 16:30:50 10° S daylight
02 Aug - 07:45:30 10° S 07:56:57 16° SE 08:06:14 10° ESE daylight
02 Aug - 10:07:05 10° SSW 10:24:44 33° SSE 10:35:41 10° ESE daylight
02 Aug - 12:36:29 10° WSW 12:51:42 40° S 13:00:07 10° ESE daylight
02 Aug - 15:07:36 10° WSW 15:16:39 26° SSW 15:22:19 10° SSE daylight
03 Aug - 08:54:27 10° SSW 09:11:57 28° SSE 09:23:57 10° ESE daylight
03 Aug - 11:21:55 10° SW 11:39:39 41° S 11:49:41 10° ESE daylight
03 Aug - 13:53:01 10° WSW 14:05:42 36° SSW 14:12:54 10° SE daylight
03 Aug - 16:25:25 10° WSW 16:29:20 13° SW 16:32:31 10° SSW daylight
04 Aug - 07:43:28 10° S 07:59:01 21° SE 08:11:00 10° ESE daylight
04 Aug - 10:07:47 10° SW 10:27:06 38° SSE 10:38:48 10° ESE daylight
04 Aug - 12:38:11 10° WSW 12:54:12 42° S 13:02:58 10° ESE daylight
04 Aug - 15:10:01 10° W 15:18:58 24° SSW 15:24:44 10° SSE daylight
05 Aug - 06:35:42 10° SSE 06:46:09 14° SE 06:55:18 10° ESE daylight
05 Aug - 08:54:31 10° SSW 09:14:10 33° SSE 09:27:18 10° E daylight
05 Aug - 11:23:18 10° WSW 11:42:05 44° S 11:52:35 10° ESE daylight
05 Aug - 13:55:05 10° W 14:08:06 34° SSW 14:15:32 10° SE daylight
05 Aug - 16:29:38 10° WSW 16:31:27 11° SW 16:33:06 10° SW daylight
06 Aug - 07:42:38 10° SSW 08:01:02 27° SSE 08:14:50 10° E daylight
06 Aug - 10:08:46 10° SW 10:29:25 43° SSE 10:41:46 10° ESE daylight
06 Aug - 12:40:00 10° WSW 12:56:36 42° SSW 13:05:43 10° SE daylight
06 Aug - 15:12:33 10° W 15:21:10 21° SW 15:26:54 10° S daylight
